CW9206 Weather Reports


time (UTC)temp
C
wind
direction
speed
KPH
gust
KPH
rain 1hr
cm
rain 24hr
cm
rain mn
cm
humidity
%
barometer
mb
20220627214751 36 312 9.7 16.1 0.00 0.00 0.00 31 1011.0
20220627214250 36 321 0.0 16.1 0.00 0.00 0.00 31 1011.1
20220627213751 36 300 1.6 14.5 0.00 0.00 0.00 31 1011.0
20220627213251 36 227 8.0 14.5 0.00 0.00 0.00 32 1011.1
20220627212750 35 323 1.6 16.1 0.00 0.00 0.00 32 1011.1
20220627212251 35 324 0.0 16.1 0.00 0.00 0.00 32 1011.3
20220627211750 35 286 0.0 20.9 0.00 0.00 0.00 32 1011.2
20220627211251 35 291 0.0 20.9 0.00 0.00 0.00 32 1011.3
20220627210750 35 289 1.6 16.1 0.00 0.00 0.00 31 1011.2
20220627210250 35 304 6.4 20.9 0.00 0.00 0.00 31 1011.2
20220627205751 36 237 11.3 20.9 0.00 0.00 0.00 31 1011.2
20220627205251 36 292 4.8 17.7 0.00 0.00 0.00 31 1011.2
20220627204751 35 305 0.0 17.7 0.00 0.00 0.00 31 1011.3
20220627204250 36 264 3.2 17.7 0.00 0.00 0.00 31 1011.4
20220627203750 36 294 3.2 14.5 0.00 0.00 0.00 31 1011.3
20220627203250 36 258 0.0 14.5 0.00 0.00 0.00 31 1011.3
20220627202751 36 246 6.4 14.5 0.00 0.00 0.00 31 1011.3
20220627202250 36 290 11.3 16.1 0.00 0.00 0.00 32 1011.4
20220627201751 35 290 1.6 16.1 0.00 0.00 0.00 32 1011.5
20220627201250 35 245 6.4 16.1 0.00 0.00 0.00 33 1011.5
20220627200750 35 214 3.2 14.5 0.00 0.00 0.00 32 1011.5
20220627200251 35 210 0.0 14.5 0.00 0.00 0.00 33 1011.6
20220627195750 35 199 0.0 14.5 0.00 0.00 0.00 33 1011.7
20220627195250 34 245 0.0 14.5 0.00 0.00 0.00 33 1011.7
20220627194750 34 290 4.8 16.1 0.00 0.00 0.00 34 1011.8
20220627194251 34 276 0.0 16.1 0.00 0.00 0.00 34 1011.8
20220627193750 33 294 1.6 11.3 0.00 0.00 0.00 34 1011.9
20220627193250 33 271 8.0 11.3 0.00 0.00 0.00 35 1012.0
20220627192750 33 223 0.0 11.3 0.00 0.00 0.00 35 1012.2
20220627192250 33 256 0.0 11.3 0.00 0.00 0.00 35 1012.3
20220627191750 33 244 1.6 11.3 0.00 0.00 0.00 35 1012.3
20220627191251 33 240 3.2 9.7 0.00 0.00 0.00 34 1012.3
20220627190750 33 254 6.4 9.7 0.00 0.00 0.00 34 1012.3
20220627190250 33 259 1.6 9.7 0.00 0.00 0.00 34 1012.4
20220627185750 33 267 0.0 9.7 0.00 0.00 0.00 34 1012.3
20220627185250 33 271 3.2 11.3 0.00 0.00 0.00 34 1012.4
20220627184750 33 287 6.4 11.3 0.00 0.00 0.00 34 1012.5
20220627184250 33 287 4.8 9.7 0.00 0.00 0.00 33 1012.5
20220627183750 32 287 1.6 9.7 0.00 0.00 0.00 35 1012.6
20220627183250 32 306 1.6 11.3 0.00 0.00 0.00 35 1012.5
20220627182750 32 309 1.6 11.3 0.00 0.00 0.00 35 1012.7
20220627182250 32 292 8.0 9.7 0.00 0.00 0.00 36 1012.7
20220627181750 32 292 1.6 9.7 0.00 0.00 0.00 37 1012.6
20220627181250 31 292 1.6 8.0 0.00 0.00 0.00 37 1012.6
20220627180750 31 294 0.0 8.0 0.00 0.00 0.00 38 1012.7
20220627180250 30 294 6.4 8.0 0.00 0.00 0.00 39 1012.8
20220627175750 30 294 1.6 6.4 0.00 0.00 0.00 40 1012.8
20220627175250 29 294 1.6 8.0 0.00 0.00 0.00 41 1012.8
20220627174750 29 294 3.2 8.0 0.00 0.00 0.00 41 1012.8
20220627174250 28 294 1.6 6.4 0.00 0.00 0.00 42 1012.9
20220627173750 28 294 0.0 9.7 0.00 0.00 0.00 43 1012.8
20220627173250 27 294 4.8 9.7 0.00 0.00 0.00 44 1012.8
20220627172750 27 294 1.6 9.7 0.00 0.00 0.00 44 1012.8
20220627172250 27 296 0.0 6.4 0.00 0.00 0.00 46 1012.8
20220627171750 27 295 0.0 6.4 0.00 0.00 0.00 46 1012.8
20220627171251 26 296 0.0 3.2 0.00 0.00 0.00 47 1013.1
20220627170750 25 296 0.0 4.8 0.00 0.00 0.00 48 1013.1
20220627170250 25 296 0.0 6.4 0.00 0.00 0.00 50 1013.0
20220627165750 24 295 0.0 6.4 0.00 0.00 0.00 51 1013.1
20220627165250 24 296 0.0 1.6 0.00 0.00 0.00 52 1013.2
20220627164750 23 296 0.0 4.8 0.00 0.00 0.00 54 1013.2
20220627164250 23 296 0.0 4.8 0.00 0.00 0.00 56 1013.3
20220627163750 22 296 0.0 6.4 0.00 0.00 0.00 59 1013.3
20220627163250 22 296 1.6 6.4 0.00 0.00 0.00 60 1013.3
20220627162750 21 296 0.0 0.0 0.00 0.00 0.00 61 1013.3
20220627162250 21 295 0.0 1.6 0.00 0.00 0.00 63 1013.4
20220627161750 20 296 0.0 1.6 0.00 0.00 0.00 66 1013.5
20220627161250 19 296 0.0 0.0 0.00 0.00 0.00 68 1013.5
20220627160750 18 296 0.0 0.0 0.00 0.00 0.00 70 1013.6
20220627160250 18 295 0.0 0.0 0.00 0.00 0.00 73 1013.5
20220627155749 18 295 0.0 0.0 0.00 0.00 0.00 74 1013.8
20220627155250 17 296 0.0 3.2 0.00 0.00 0.00 75 1013.9
20220627154750 17 295 0.0 3.2 0.00 0.00 0.00 76 1013.9
20220627154249 17 295 0.0 1.6 0.00 0.00 0.00 79 1013.8
20220627153750 16 296 0.0 1.6 0.00 0.00 0.00 80 1013.7
20220627153250 16 296 0.0 3.2 0.00 0.00 0.00 81 1013.7
20220627152749 16 296 0.0 3.2 0.00 0.00 0.00 82 1013.8
20220627152249 16 295 0.0 3.2 0.00 0.00 0.00 82 1013.9
20220627151750 15 295 0.0 3.2 0.00 0.00 0.00 83 1014.0
20220627151249 15 296 1.6 3.2 0.00 0.00 0.00 85 1013.8
20220627150750 15 295 0.0 0.0 0.00 0.00 0.00 85 1013.8
20220627150250 15 296 0.0 0.0 0.00 0.00 0.00 86 1013.8
20220627145749 14 296 0.0 0.0 0.00 0.00 0.00 87 1013.7
20220627145250 14 296 0.0 0.0 0.00 0.00 0.00 87 1013.7
20220627144750 13 295 0.0 0.0 0.00 0.00 0.00 87 1013.6
20220627144250 13 296 0.0 0.0 0.00 0.00 0.00 88 1013.7
20220627143750 13 296 0.0 3.2 0.00 0.00 0.00 88 1013.7
20220627143249 13 295 0.0 3.2 0.00 0.00 0.00 88 1013.7
20220627142749 13 295 3.2 3.2 0.00 0.00 0.00 88 1013.7
20220627142249 12 296 0.0 0.0 0.00 0.00 0.00 88 1013.4
20220627141750 12 296 0.0 0.0 0.00 0.00 0.00 88 1013.6
20220627141249 12 296 0.0 0.0 0.00 0.00 0.00 88 1013.7
20220627140750 12 295 0.0 0.0 0.00 0.00 0.00 88 1013.7
20220627140250 12 296 0.0 0.0 0.00 0.00 0.00 88 1013.7
20220627135750 12 296 0.0 0.0 0.00 0.00 0.00 88 1013.8
20220627135249 12 295 0.0 0.0 0.00 0.00 0.00 88 1013.7
20220627134750 12 296 0.0 0.0 0.00 0.00 0.00 88 1013.7
20220627134250 12 296 0.0 0.0 0.00 0.00 0.00 88 1013.7
20220627133750 12 295 0.0 0.0 0.00 0.00 0.00 88 1013.6
20220627133249 12 295 0.0 0.0 0.00 0.00 0.00 88 1013.7
20220627132749 12 296 0.0 0.0 0.00 0.00 0.00 88 1013.6
20220627132250 12 296 0.0 0.0 0.00 0.00 0.00 88 1013.6
20220627131749 12 295 0.0 0.0 0.00 0.00 0.00 88 1013.7
20220627131249 12 296 0.0 0.0 0.00 0.00 0.00 87 1013.7
20220627130749 12 295 0.0 0.0 0.00 0.00 0.00 87 1013.7
20220627130250 12 296 0.0 0.0 0.00 0.00 0.00 87 1013.7
20220627125749 12 295 0.0 0.0 0.00 0.00 0.00 87 1013.8
20220627125249 12 296 0.0 0.0 0.00 0.00 0.00 88 1013.9
20220627124749 12 296 0.0 0.0 0.00 0.00 0.00 88 1013.8
20220627124250 12 296 0.0 0.0 0.00 0.00 0.00 88 1013.8
20220627123750 12 295 0.0 0.0 0.00 0.00 0.00 88 1013.8
20220627123249 12 296 0.0 0.0 0.00 0.00 0.00 88 1013.8
20220627122750 12 296 0.0 0.0 0.00 0.00 0.00 88 1013.8
20220627122249 12 295 0.0 0.0 0.00 0.00 0.00 88 1013.7
20220627121750 12 295 0.0 0.0 0.00 0.00 0.00 88 1013.8
20220627121250 12 296 0.0 0.0 0.00 0.00 0.00 88 1013.6
20220627120750 12 296 0.0 0.0 0.00 0.00 0.00 88 1013.5
20220627120250 12 296 0.0 0.0 0.00 0.00 0.00 88 1013.5
20220627115749 12 295 0.0 0.0 0.00 0.00 0.00 88 1013.5
20220627115249 12 296 0.0 0.0 0.00 0.00 0.00 88 1013.6
20220627114749 12 296 0.0 0.0 0.00 0.00 0.00 88 1013.4
20220627114249 12 295 0.0 0.0 0.00 0.00 0.00 88 1013.4
20220627113749 12 296 0.0 0.0 0.00 0.00 0.00 88 1013.4
20220627113250 12 296 0.0 0.0 0.00 0.00 0.00 88 1013.4
20220627112750 12 296 0.0 0.0 0.00 0.00 0.00 88 1013.4
20220627112249 12 295 0.0 0.0 0.00 0.00 0.00 88 1013.5
20220627111749 12 296 0.0 0.0 0.00 0.00 0.00 87 1013.4
20220627111250 12 296 0.0 0.0 0.00 0.00 0.00 87 1013.4
20220627110749 12 296 0.0 0.0 0.00 0.00 0.00 87 1013.4
20220627110250 12 295 0.0 0.0 0.00 0.00 0.00 88 1013.3
20220627105750 12 296 0.0 0.0 0.00 0.00 0.00 87 1013.3
20220627105250 12 296 0.0 0.0 0.00 0.00 0.00 88 1013.4
20220627104749 12 296 0.0 0.0 0.00 0.00 0.00 88 1013.3
20220627104249 12 295 0.0 0.0 0.00 0.00 0.00 88 1013.3
20220627103749 12 296 0.0 0.0 0.00 0.00 0.00 88 1013.3
20220627103249 12 296 0.0 0.0 0.00 0.00 0.00 88 1013.4
20220627102750 12 295 0.0 0.0 0.00 0.00 0.00 88 1013.4
20220627102249 12 296 0.0 0.0 0.00 0.00 0.00 88 1013.3
20220627101750 12 296 0.0 0.0 0.00 0.00 0.00 88 1013.4
20220627101250 12 295 0.0 0.0 0.00 0.00 0.00 88 1013.4
20220627100749 12 295 0.0 0.0 0.00 0.00 0.00 88 1013.4
20220627100249 12 296 0.0 0.0 0.00 0.00 0.00 88 1013.4
20220627095749 12 296 0.0 0.0 0.00 0.00 0.00 87 1013.3
20220627095249 12 295 0.0 0.0 0.00 0.00 0.00 87 1013.3
20220627094749 12 296 0.0 0.0 0.00 0.00 0.00 87 1013.3
20220627094249 12 296 0.0 0.0 0.00 0.00 0.00 87 1013.2
20220627093749 12 296 0.0 1.6 0.00 0.00 0.00 87 1013.2
20220627093249 12 295 0.0 1.6 0.00 0.00 0.00 87 1013.2
20220627092749 12 296 0.0 0.0 0.00 0.00 0.00 87 1013.2
20220627092249 12 296 0.0 0.0 0.00 0.00 0.00 87 1013.2
20220627091749 12 295 0.0 0.0 0.00 0.00 0.00 87 1013.1
20220627091249 12 295 0.0 0.0 0.00 0.00 0.00 87 1013.2
20220627090749 12 296 0.0 0.0 0.00 0.00 0.00 87 1013.1
20220627090249 12 296 0.0 0.0 0.00 0.00 0.00 87 1013.1
20220627085749 12 295 0.0 0.0 0.00 0.00 0.00 86 1013.0
20220627085249 12 296 0.0 0.0 0.00 0.00 0.00 86 1013.0
20220627084749 12 296 0.0 0.0 0.00 0.00 0.00 86 1013.0
20220627084249 12 296 0.0 0.0 0.00 0.00 0.00 86 1013.0
20220627083749 12 295 0.0 0.0 0.00 0.00 0.00 86 1013.0
20220627083249 12 295 0.0 0.0 0.00 0.00 0.00 86 1013.0
20220627082749 12 296 0.0 0.0 0.00 0.00 0.00 86 1013.1
20220627082249 12 296 0.0 0.0 0.00 0.00 0.00 86 1013.1
20220627081749 12 295 0.0 0.0 0.00 0.00 0.00 86 1013.1
20220627081249 12 296 0.0 0.0 0.00 0.00 0.00 86 1013.1
20220627080749 12 296 0.0 0.0 0.00 0.00 0.00 86 1013.0
20220627080249 12 296 0.0 0.0 0.00 0.00 0.00 86 1013.0
20220627075749 12 295 0.0 0.0 0.00 0.00 0.00 85 1013.2
20220627075249 12 295 0.0 0.0 0.00 0.00 0.00 85 1013.2
20220627074749 12 296 0.0 0.0 0.00 0.00 0.00 85 1013.3
20220627074249 12 295 0.0 0.0 0.00 0.00 0.00 85 1013.1
20220627073749 13 296 0.0 0.0 0.00 0.00 0.00 85 1013.1
20220627073249 13 296 0.0 0.0 0.00 0.00 0.00 85 1013.2
20220627072749 13 296 0.0 0.0 0.00 0.00 0.00 85 1013.2
20220627072249 13 295 0.0 0.0 0.00 0.00 0.00 84 1013.1
20220627071749 13 295 0.0 0.0 0.00 0.00 0.00 84 1013.1
20220627071249 13 296 0.0 0.0 0.00 0.00 0.00 84 1013.0
20220627070749 13 296 0.0 0.0 0.00 0.00 0.00 84 1013.0
20220627070249 13 296 0.0 0.0 0.00 0.00 0.00 84 1013.0
20220627065749 13 296 0.0 0.0 0.00 0.00 0.00 83 1013.3
20220627065249 13 296 0.0 0.0 0.00 0.00 0.00 83 1013.3
20220627064749 13 296 0.0 0.0 0.00 0.00 0.00 83 1013.3
20220627064249 13 295 0.0 0.0 0.00 0.00 0.00 83 1013.3
20220627063749 13 296 0.0 0.0 0.00 0.00 0.00 83 1013.4
20220627063250 13 296 0.0 0.0 0.00 0.00 0.00 82 1013.4
20220627062749 13 296 0.0 0.0 0.00 0.00 0.00 82 1013.5
20220627062250 13 295 0.0 3.2 0.00 0.00 0.00 82 1013.5
20220627061749 13 295 0.0 3.2 0.00 0.00 0.00 81 1013.5
20220627061249 14 296 0.0 0.0 0.00 0.00 0.00 81 1013.5
20220627060749 14 295 0.0 0.0 0.00 0.00 0.00 81 1013.4
20220627060249 14 295 0.0 3.2 0.00 0.00 0.00 80 1013.5
20220627055749 14 296 0.0 3.2 0.00 0.00 0.00 80 1013.3
20220627055249 14 296 0.0 0.0 0.00 0.00 0.00 80 1013.4
20220627054749 14 295 0.0 0.0 0.00 0.00 0.00 79 1013.4
20220627054249 15 295 0.0 0.0 0.00 0.00 0.00 79 1013.4
20220627053749 15 296 0.0 0.0 0.00 0.00 0.00 79 1013.4
20220627053249 15 296 0.0 4.8 0.00 0.00 0.00 78 1013.3
20220627052749 15 295 0.0 4.8 0.00 0.00 0.00 78 1013.2
20220627052249 15 296 0.0 0.0 0.00 0.00 0.00 78 1013.3
20220627051749 15 296 0.0 0.0 0.00 0.00 0.00 77 1013.2
20220627051249 15 296 0.0 0.0 0.00 0.00 0.00 77 1013.3
20220627050749 15 295 0.0 1.6 0.00 0.00 0.00 76 1013.2
20220627050248 15 295 0.0 3.2 0.00 0.00 0.00 76 1013.2
20220627045750 15 296 0.0 3.2 0.00 0.00 0.00 75 1012.9
20220627045249 15 295 0.0 0.0 0.00 0.00 0.00 75 1012.9
20220627044748 16 296 0.0 0.0 0.00 0.00 0.00 75 1012.8
20220627044250 16 296 0.0 1.6 0.00 0.00 0.00 74 1012.7
20220627043749 16 296 0.0 1.6 0.00 0.00 0.00 74 1012.7
20220627043250 16 295 0.0 0.0 0.00 0.00 0.00 73 1012.7
20220627042749 16 295 0.0 4.8 0.00 0.00 0.00 73 1012.6
20220627042249 16 296 0.0 4.8 0.00 0.00 0.00 73 1012.6
20220627041749 16 296 0.0 0.0 0.00 0.00 0.00 72 1012.5
20220627041248 16 295 0.0 1.6 0.00 0.00 0.00 71 1012.5
20220627040748 17 296 0.0 3.2 0.00 0.00 0.00 71 1012.4
20220627040249 17 296 0.0 4.8 0.00 0.00 0.00 69 1012.2
20220627035750 17 295 0.0 4.8 0.00 0.00 0.00 69 1012.1
20220627035248 17 295 0.0 4.8 0.00 0.00 0.00 68 1012.2
20220627034748 18 296 0.0 4.8 0.00 0.00 0.00 67 1011.9
20220627034249 18 296 0.0 4.8 0.00 0.00 0.00 67 1011.9
20220627033749 18 295 0.0 1.6 0.00 0.00 0.00 66 1011.8
20220627033248 18 296 0.0 4.8 0.00 0.00 0.00 65 1011.9
20220627032749 18 296 0.0 6.4 0.00 0.00 0.00 65 1011.8
20220627032249 19 296 0.0 8.0 0.00 0.00 0.00 65 1011.7
20220627031749 19 296 0.0 8.0 0.00 0.00 0.00 64 1011.6
20220627031248 19 300 0.0 3.2 0.00 0.00 0.00 64 1011.5
20220627030749 20 300 0.0 3.2 0.00 0.00 0.00 64 1011.5
20220627030249 20 300 0.0 6.4 0.00 0.00 0.00 63 1011.3
20220627025748 20 300 0.0 6.4 0.00 0.00 0.00 62 1011.2
20220627025248 20 300 3.2 6.4 0.00 0.00 0.00 61 1011.1
20220627024749 20 305 0.0 6.4 0.00 0.00 0.00 61 1011.1
20220627024248 21 304 0.0 6.4 0.00 0.00 0.00 59 1011.0
20220627023748 21 304 0.0 6.4 0.00 0.00 0.00 58 1011.0
20220627023249 21 307 0.0 9.7 0.00 0.00 0.00 57 1010.8
20220627022748 22 312 1.6 9.7 0.00 0.00 0.00 56 1010.7
20220627022249 22 313 1.6 9.7 0.00 0.00 0.00 56 1010.7
20220627021749 22 213 0.0 9.7 0.00 0.00 0.00 55 1010.6
20220627021248 23 271 3.2 14.5 0.00 0.00 0.00 54 1010.6
20220627020749 23 267 6.4 14.5 0.00 0.00 0.00 52 1010.6
20220627020248 24 275 0.0 14.5 0.00 0.00 0.00 51 1010.6
20220627015749 25 259 3.2 9.7 0.00 0.00 0.00 49 1010.5
20220627015248 25 268 0.0 16.1 0.00 0.00 0.00 48 1010.6
20220627014748 26 269 0.0 16.1 0.00 0.00 0.00 47 1010.6
20220627014248 26 265 0.0 16.1 0.00 0.00 0.00 46 1010.6
20220627013748 27 258 1.6 14.5 0.00 0.00 0.00 45 1010.6
20220627013249 27 261 0.0 14.5 0.00 0.00 0.00 45 1010.5
20220627012749 27 277 4.8 9.7 0.00 0.00 0.00 44 1010.5
20220627012249 27 280 4.8 11.3 0.00 0.00 0.00 43 1010.5
20220627011748 28 331 1.6 11.3 0.00 0.00 0.00 43 1010.5
20220627011248 28 289 3.2 9.7 0.00 0.00 0.00 42 1010.4
20220627010748 28 309 6.4 11.3 0.00 0.00 0.00 42 1010.4
20220627010248 29 311 0.0 16.1 0.00 0.00 0.00 41 1010.5
20220627005749 30 256 3.2 16.1 0.00 0.00 0.00 40 1010.5
20220627005249 30 306 8.0 14.5 0.00 0.00 0.00 39 1010.5
20220627004748 31 268 3.2 14.5 0.00 0.00 0.00 38 1010.5
20220627004249 31 304 0.0 16.1 0.00 0.00 0.00 38 1010.5
20220627003748 31 265 0.0 16.1 0.00 0.00 0.00 39 1010.5
20220627003248 31 217 1.6 9.7 0.00 0.00 0.00 38 1010.6
20220627002749 31 213 0.0 9.7 0.00 0.00 0.00 38 1010.5
20220627002249 31 251 0.0 9.7 0.00 0.00 0.00 38 1010.5
20220627001748 31 265 4.8 14.5 0.00 0.00 0.00 37 1010.6
20220627001249 31 295 0.0 14.5 0.00 0.00 0.00 37 1010.5
20220627000748 31 319 8.0 11.3 0.00 0.00 0.00 37 1010.4
20220627000249 32 226 8.0 11.3 0.00 0.00 0.00 36 1010.5
20220626235748 32 263 3.2 8.0 0.00 0.00 0.00 35 1010.5
20220626235248 32 267 6.4 11.3 0.00 0.00 0.00 36 1010.6
20220626234748 32 269 0.0 11.3 0.00 0.00 0.00 37 1010.6
20220626234248 32 309 9.7 9.7 0.00 0.00 0.00 36 1010.6
20220626233748 32 297 0.0 14.5 0.00 0.00 0.00 36 1010.6
20220626233249 32 303 0.0 14.5 0.00 0.00 0.00 37 1010.6
20220626232749 32 253 1.6 9.7 0.00 0.00 0.00 36 1010.6
20220626232248 32 298 1.6 11.3 0.00 0.00 0.00 37 1010.7
20220626231748 31 248 4.8 14.5 0.00 0.00 0.00 37 1010.6
20220626231248 32 317 8.0 14.5 0.00 0.00 0.00 36 1010.7
20220626230748 32 279 8.0 14.5 0.00 0.00 0.00 37 1010.7
20220626230248 32 277 9.7 17.7 0.00 0.00 0.00 37 1010.7
20220626225748 32 272 6.4 17.7 0.00 0.00 0.00 37 1010.8
20220626225248 32 303 0.0 16.1 0.00 0.00 0.00 37 1010.8
20220626224749 32 248 0.0 16.1 0.00 0.00 0.00 37 1010.8
20220626224249 32 360 1.6 12.9 0.00 0.00 0.00 37 1010.8
20220626223748 32 275 0.0 14.5 0.00 0.00 0.00 37 1010.9
20220626223248 32 298 4.8 14.5 0.00 0.00 0.00 37 1010.9
20220626222748 32 265 8.0 16.1 0.00 0.00 0.00 36 1010.9
20220626222249 32 241 0.0 16.1 0.00 0.00 0.00 36 1010.8
20220626221749 32 252 6.4 17.7 0.00 0.00 0.00 36 1010.8
20220626221248 32 311 4.8 17.7 0.00 0.00 0.00 36 1010.9
20220626220748 32 236 4.8 16.1 0.00 0.00 0.00 36 1010.9
20220626220248 32 281 0.0 14.5 0.00 0.00 0.00 36 1010.9
20220626215748 32 269 1.6 14.5 0.00 0.00 0.00 36 1010.9
20220626215248 32 285 6.4 16.1 0.00 0.00 0.00 36 1010.9